Location: ??????
(56.0120°N, 39.1740°E)
Time: 21:45:28
(UTC+00:00)

Cosmos 1455 Rocket - Pass Details

Date: 14 April 2026
Orbit: 598 x 622 km, 82.5° (Epoch: 13 May)

Event Time Altitude Azimuth Distance (km) Brightness Sun altitude
Exits shadow 22:12:45 54° 274° (W) 762 3.4 -23.5°
Maximum altitude 22:12:58 55° 287° (WNW) 756 3.4 -23.5°
Drops below altitude 10° 22:17:20 10° 6° (N) 2,006 6.8 -23.4°
Sets 22:19:38 0° 11° (N) 2,918 8.0 -23.3°
